{"data":{"norad_id":68215,"intl_designator":"2026-053J","name":"STARLINK-36272","alt_names":[],"object_type":"PAYLOAD","status":"ACTIVE","operator":null,"country":"US","launch_date":"2026-03-17","launch_site_code":"AFWTR","launch_vehicle":null,"mission":null,"orbit_class":"UNKNOWN","rcs_meters":null,"size_class":null,"mass_kg":null,"dimensions":null,"purposes":["comms"],"wikipedia_slug":null,"has_3d_model":false,"image_url":null,"decayed_at":null,"tle_current":{"epoch":"2026-05-25T03:22:42.412224Z","epoch_age_seconds":62660,"freshness":"FRESH","line1":"1 68215U 26053J   26145.14076866  .00032571  00000+0  10065-2 0  9995","line2":"2 68215  97.2871  20.5757 0001962 103.2098 256.9364 15.33456970 11915","mean_motion":15.3345697,"eccentricity":0.0001962,"inclination_deg":97.2871,"raan_deg":20.5757,"arg_perigee_deg":103.2098,"mean_anomaly_deg":256.9364,"bstar":0.0010065,"rev_number":1191,"period_min":93.905471635112,"perigee_km":464.16483734866,"apogee_km":466.85028347416,"semimajor_km":6843.6445604114,"source":"CELESTRAK","updated_at":"2026-05-25T13:38:21.879018Z"}}}